User: anonymous   Login
Location: Nachod
(50.4170°N, 16.1670°E)
Time: 02:44:45
(UTC+01:00)
Language:

DIWATA 2B (PO-101) - Orbit

View from above orbital plane
View from above orbital plane
View from above satellite
View from above satellite

Ground track
Ground track

The orbit data is extracted from the following two-line orbital elements,

1 43678U 18084H   21057.84305194  .00000493  00000-0  54697-4 0  9999
2 43678  97.9064 182.6699 0011339  61.6222 298.6170 14.91714294126949
Epoch (UTC): 26 February 2021 20:13:59
Eccentricity: 0.0011339
inclination: 97.9064°
perigee height: 584 km
apogee height: 600 km
right ascension of ascending node: 182.6699°
argument of perigee: 61.6222°
revolutions per day: 14.91714294
mean anomaly at epoch: 298.6170°
orbit number at epoch: 12694

The dashed part of the orbit path shows where the satellite is in the earth's shadow,  

DLR